Location: Unspecified
(44.0704°N, 88.6889°W)
Time: 21:10:03
(UTC+02:00)

Altair - Pass Details

Date: 25 June 2019
Orbit: 1501 x 1683 km, 47.2° (Epoch: 15 July)

Event Time Altitude Azimuth Distance (km) Brightness Sun altitude
Rises 09:46:49 0° 295° (WNW) 4,852 10.1 -18.0°
Reaches altitude 10° 09:50:09 10° 288° (WNW) 3,885 9.5 -17.8°
Maximum altitude 09:59:08 40° 224° (SW) 2,300 7.9 -17.0°
Drops below altitude 10° 10:08:16 10° 159° (SSE) 3,936 9.3 -16.2°
Sets 10:11:41 0° 152° (SSE) 4,920 9.9 -15.9°
